This is the latest recevied weather packets stored in our database for station/object F5GJJ-13. If no packets are shown the sender has not sent any weather packets the latest 1 day(s).
| Time | Temp. | Humidity | Pressure | Rain* | Wind** | Luminosity | Snow |
|---|---|---|---|---|---|---|---|
| 1777987558 | 20° C | 71% | 1009.6 hPa | 0 mm | 1.34 m/s, 103° | - | - |
| 1777987032 | 20° C | 73% | 1009.6 hPa | 0 mm | 1.34 m/s, 145° | - | - |
| 1777986071 | 19.44° C | 73% | 1010.6 hPa | 0 mm | 0.45 m/s, 140° | - | - |
| 1777985757 | 20° C | 75% | 1010.6 hPa | 0 mm | 0.89 m/s, 118° | - | - |
| 1777985113 | 19.44° C | 75% | 1010.6 hPa | 0 mm | 0 m/s | - | - |
| 1777984151 | 20° C | 77% | 1009.6 hPa | 0 mm | 0 m/s | - | - |
| 1777983958 | 19.44° C | 76% | 1009.6 hPa | 0 mm | 0.45 m/s, 83° | - | - |
| 1777983260 | 20° C | 78% | 1009.6 hPa | 0 mm | 0.89 m/s, 129° | - | - |
| 1777983192 | 20° C | 78% | 1009.6 hPa | 0 mm | 0.89 m/s, 129° | - | - |
| 1777982232 | 19.44° C | 78% | 1010.6 hPa | 0 mm | 0.89 m/s, 138° | - | - |
| 1777982157 | 19.44° C | 78% | 1010.6 hPa | 0 mm | 0.45 m/s, 137° | - | - |
| 1777981271 | 18.33° C | 80% | 1010.6 hPa | 0 mm | 0 m/s | - | - |
| 1777980312 | 17.78° C | 83% | 1010.6 hPa | 0 mm | 0.45 m/s, 132° | - | - |
| 1777979352 | 17.22° C | 82% | 1010.6 hPa | 0 mm | 0.45 m/s, 59° | - | - |
| 1777979351 | 17.22° C | 82% | 1010.6 hPa | 0 mm | 0.45 m/s, 59° | - | - |
| 1777978558 | 16.67° C | 83% | 1011.6 hPa | 0 mm | 0.45 m/s, 70° | - | - |
| 1777978391 | 17.22° C | 83% | 1011.6 hPa | 0 mm | 0 m/s | - | - |
| 1777977432 | 16.67° C | 84% | 1012.6 hPa | 0 mm | 0 m/s | - | - |
| 1777976758 | 16.67° C | 86% | 1012.6 hPa | 0 mm | 0.45 m/s, 45° | - | - |
| 1777976472 | 16.67° C | 86% | 1012.6 hPa | 0 mm | 0.45 m/s, 65° | - | - |
| 1777975512 | 16.11° C | 86% | 1012.6 hPa | 1.27 mm | 0.45 m/s, 89° | - | - |
| 1777974958 | 15.56° C | 86% | 1012.6 hPa | 1.27 mm | 0.45 m/s, 78° | - | - |
| 1777974551 | 15.56° C | 86% | 1012.6 hPa | 1.27 mm | 0 m/s | - | - |
| 1777973592 | 15.56° C | 87% | 1012.6 hPa | 2.29 mm | 0.45 m/s, 42° | - | - |
| 1777973157 | 15.56° C | 87% | 1012.6 hPa | 2.29 mm | 0.45 m/s, 60° | - | - |
* Rain latest hour (hover to see other rain measurements)
** Current wind speed in m/s (hover to see current wind gust speed)